KD8BMB Weather Reports


time (UTC)temp
C
wind
direction
speed
KPH
gust
KPH
rain 1hr
cm
rain 24hr
cm
rain mn
cm
humidity
%
barometer
mb
20260903075659 21 301 0.0 0.0 0.00 0.00 0.00 99 1013.0
20260903075154 21 301 0.0 0.0 0.00 0.00 0.00 99 1012.9
20260903074653 21 300 0.0 0.0 0.00 0.00 0.00 99 1012.7
20260903074149 21 277 0.0 0.0 0.00 0.00 0.00 99 1012.7
20260903073644 21 287 0.0 0.0 0.00 0.00 0.00 99 1012.7
20260903073139 21 289 0.0 0.0 0.00 0.00 0.00 99 1012.9
20260903072634 21 274 0.0 0.0 0.00 0.00 0.00 99 1012.7
20260903072131 21 281 0.0 0.0 0.00 0.00 0.00 99 1013.0
20260903071627 21 305 0.0 0.0 0.00 0.00 0.00 99 1013.0
20260903071123 21 275 0.0 0.0 0.00 0.00 0.00 99 1013.1
20260903070623 21 273 0.0 0.0 0.00 0.00 0.00 99 1013.0
20260903070119 21 282 0.0 0.0 0.00 0.00 0.00 99 1013.2
20260903065618 21 299 0.0 0.0 0.00 0.00 0.00 99 1012.7
20260903065118 21 299 0.0 0.0 0.00 0.00 0.00 99 1012.9
20260903064612 21 302 0.0 0.0 0.00 0.00 0.00 99 1012.7
20260903064107 21 299 0.0 0.0 0.00 0.00 0.00 99 1012.9
20260903063603 21 315 0.0 0.0 0.00 0.00 0.00 99 1013.0
20260903063058 21 315 0.0 0.0 0.00 0.00 0.00 99 1012.9
20260903062554 21 316 0.0 0.0 0.00 0.00 0.00 99 1012.9
20260903062049 21 316 0.0 0.0 0.00 0.00 0.00 99 1012.9
20260903061544 21 322 0.0 0.0 0.00 0.00 0.00 99 1012.9
20260903061044 21 303 0.0 0.0 0.00 0.00 0.00 99 1012.9
20260903060543 21 322 0.0 0.0 0.00 0.00 0.00 99 1013.0
20260903060038 21 251 0.0 0.0 0.00 0.00 0.00 99 1013.1
20260903055536 21 294 0.0 0.0 0.00 0.00 0.00 99 1013.0
20260903055035 21 255 0.0 0.0 0.00 0.00 0.00 99 1013.0
20260903054530 21 283 0.0 0.0 0.00 0.00 0.00 99 1013.0
20260903054026 21 300 0.0 0.0 0.00 0.00 0.00 99 1012.7
20260903053526 21 299 0.0 0.0 0.00 0.00 0.00 99 1012.6
20260903053022 21 290 0.0 0.0 0.00 0.00 0.00 99 1012.6
20260903052517 21 294 0.0 0.0 0.00 0.00 0.00 99 1012.6
20260903052013 21 328 0.0 0.0 0.00 0.00 0.00 99 1012.7
20260903051508 21 318 0.0 0.0 0.00 0.00 0.00 99 1012.7
20260903051004 21 318 0.0 0.0 0.00 0.00 0.00 99 1012.3
20260903050503 22 317 0.0 0.0 0.00 0.00 0.00 99 1012.9
20260903045957 22 51 0.0 0.0 0.00 0.00 0.00 99 1012.7
20260903045453 22 300 0.0 0.0 0.00 0.00 0.00 99 1013.0
20260903044949 22 286 0.0 0.0 0.00 0.00 0.00 99 1012.9
20260903044445 22 283 0.0 0.0 0.00 0.00 0.00 99 1013.0
20260903043941 22 273 0.0 0.0 0.00 0.00 0.00 99 1012.6
20260903043436 22 259 0.0 0.0 0.00 0.00 0.00 99 1012.6
20260903042934 22 305 0.0 0.0 0.00 0.00 0.00 99 1012.5
20260903042430 22 313 0.0 0.0 0.00 0.00 0.00 99 1012.4
20260903041926 22 299 0.0 0.0 0.00 0.00 0.00 99 1012.6
20260903041422 22 300 0.0 0.0 0.00 0.00 0.00 99 1012.7
20260903040918 22 306 0.0 0.0 0.00 0.00 0.00 99 1012.7
20260903040416 22 275 0.0 0.0 0.00 0.00 0.00 99 1012.6
20260903035913 22 188 3.2 3.2 0.00 0.53 0.53 99 1012.6
20260903035408 22 221 0.0 0.0 0.00 0.53 0.53 99 1012.1
20260903034903 22 318 0.0 0.0 0.00 0.53 0.53 99 1012.0
20260903034358 22 291 0.0 0.0 0.00 0.53 0.53 99 1012.2
20260903033853 22 284 0.0 0.0 0.00 0.53 0.53 99 1011.9
20260903033348 22 290 0.0 0.0 0.00 0.53 0.53 99 1011.8
20260903032848 22 311 0.0 0.0 0.00 0.53 0.53 99 1011.8
20260903032344 22 310 0.0 0.0 0.00 0.53 0.53 99 1011.8
20260903031839 22 285 0.0 0.0 0.00 0.53 0.53 99 1011.9
20260903031338 22 311 0.0 0.0 0.00 0.53 0.53 99 1011.9
20260903030834 22 306 0.0 0.0 0.00 0.53 0.53 99 1012.0
20260903030330 22 312 0.0 0.0 0.00 0.53 0.53 99 1011.7
20260903025826 22 303 0.0 0.0 0.00 0.53 0.53 99 1012.0
20260903025321 22 291 0.0 0.0 0.00 0.53 0.53 99 1012.2
20260903024820 22 283 0.0 0.0 0.00 0.53 0.53 99 1012.1
20260903024320 22 270 0.0 0.0 0.00 0.53 0.53 99 1011.9
20260903023816 22 300 0.0 0.0 0.00 0.53 0.53 99 1011.5
20260903023311 23 312 0.0 0.0 0.00 0.53 0.53 99 1011.2
20260903022806 23 306 0.0 0.0 0.00 0.53 0.53 99 1011.3
20260903022306 23 317 0.0 0.0 0.00 0.53 0.53 99 1011.7
20260903021759 23 59 0.0 0.0 0.00 0.53 0.53 99 1011.9
20260903021255 23 292 0.0 0.0 0.00 0.53 0.53 99 1012.1
20260903020754 23 324 0.0 0.0 0.00 0.53 0.53 99 1012.4
20260903020249 23 322 0.0 0.0 0.00 0.53 0.53 99 1012.3
20260903015744 23 310 0.0 0.0 0.00 0.53 0.53 99 1012.5
20260903015240 23 50 0.0 0.0 0.00 0.53 0.53 99 1012.5
20260903014735 23 9 0.0 0.0 0.00 0.53 0.53 99 1012.4
20260903014234 23 258 0.0 0.0 0.00 0.53 0.53 99 1012.3
20260903013730 23 307 0.0 0.0 0.00 0.53 0.53 99 1012.4
20260903013229 23 292 0.0 0.0 0.00 0.53 0.53 99 1012.3
20260903012727 23 312 0.0 0.0 0.00 0.53 0.53 99 1012.4
20260903012221 23 308 0.0 0.0 0.00 0.53 0.53 99 1012.3
20260903011716 23 300 0.0 0.0 0.00 0.53 0.53 99 1012.3
20260903011209 23 321 0.0 0.0 0.00 0.53 0.53 99 1012.0
20260903010706 23 285 0.0 0.0 0.00 0.53 0.53 99 1012.0
20260903010205 23 287 0.0 0.0 0.00 0.53 0.53 99 1012.0
20260903005659 23 298 0.0 0.0 0.00 0.53 0.53 99 1011.9
20260903005154 23 319 0.0 0.0 0.00 0.53 0.53 99 1011.7
20260903004650 23 291 0.0 0.0 0.00 0.53 0.53 99 1011.8
20260903004144 23 291 0.0 0.0 0.00 0.53 0.53 98 1011.6
20260903003640 23 320 0.0 0.0 0.00 0.53 0.53 98 1011.7
20260903003135 23 322 0.0 0.0 0.00 0.53 0.53 97 1011.5
20260903002630 23 318 0.0 0.0 0.00 0.53 0.53 97 1011.6
20260903002124 23 300 0.0 0.0 0.00 0.53 0.53 97 1011.4
20260903001619 24 307 0.0 0.0 0.00 0.53 0.53 96 1011.6
20260903001113 24 304 0.0 0.0 0.00 0.53 0.53 96 1011.6
20260903000609 24 80 0.0 0.0 0.00 0.53 0.53 95 1011.4
20260903000108 24 293 0.0 0.0 0.00 0.53 0.53 95 1011.4
20260902235607 24 308 0.0 0.0 0.00 0.53 0.53 94 1011.7
20260902235102 25 328 0.0 0.0 0.00 0.53 0.53 94 1011.7
20260902234556 25 341 0.0 0.0 0.00 0.53 0.53 94 1011.7
20260902234055 25 99 0.0 0.0 0.00 0.53 0.53 95 1011.8
20260902233550 25 93 0.0 0.0 0.00 0.53 0.53 97 1011.8
20260902233044 25 335 0.0 0.0 0.00 0.53 0.53 96 1011.7
20260902232544 25 356 0.0 1.6 0.00 0.53 0.53 96 1011.9
20260902232038 26 38 1.6 1.6 0.00 0.53 0.53 97 1011.7
20260902231533 26 327 1.6 3.2 0.00 0.53 0.53 97 1011.6
20260902231033 26 4 0.0 0.0 0.00 0.53 0.53 96 1011.5
20260902230533 26 327 0.0 0.0 0.00 0.53 0.53 95 1011.3
20260902230026 26 281 0.0 0.0 0.00 0.53 0.53 95 1011.1
20260902225522 26 316 0.0 0.0 0.00 0.53 0.53 95 1011.0
20260902225016 26 306 0.0 0.0 0.00 0.53 0.53 95 1011.0
20260902224515 26 284 0.0 0.0 0.00 0.53 0.53 94 1011.0
20260902224011 27 293 0.0 0.0 0.00 0.53 0.53 92 1011.0
20260902223507 26 308 0.0 0.0 0.18 0.53 0.53 89 1011.1
20260902223006 27 298 0.0 0.0 0.18 0.53 0.53 87 1011.0
20260902222504 28 308 0.0 0.0 0.00 0.51 0.51 82 1011.0
20260902221958 28 19 0.0 0.0 0.00 0.51 0.51 78 1011.0
20260902221458 28 255 0.0 0.0 0.00 0.51 0.51 79 1011.2
20260902220953 28 25 0.0 0.0 0.00 0.51 0.51 79 1011.1
20260902220453 28 336 0.0 0.0 0.00 0.51 0.51 79 1011.2
20260902215942 30 209 4.8 8.0 0.00 0.51 0.51 77 1011.6
20260902215438 32 321 6.4 9.7 0.00 0.51 0.51 67 1011.5
20260902214934 33 251 3.2 3.2 0.00 0.51 0.51 65 1011.0
20260902214432 33 2 0.0 3.2 0.00 0.51 0.51 63 1010.6
20260902213927 33 222 1.6 3.2 0.00 0.51 0.51 64 1010.8
20260902213423 33 293 3.2 8.0 0.00 0.51 0.51 63 1010.1
20260902212922 32 275 11.3 12.9 0.00 0.51 0.51 63 1010.2
20260902212418 33 280 8.0 12.9 0.00 0.51 0.51 63 1009.9
20260902211914 32 272 8.0 9.7 0.00 0.51 0.51 64 1010.5
20260902211409 32 248 4.8 4.8 0.00 0.51 0.51 64 1011.0
20260902210859 33 270 0.0 0.0 0.00 0.51 0.51 64 1010.8
20260902210358 33 242 4.8 8.0 0.00 0.51 0.51 63 1011.0
20260902205857 33 289 8.0 9.7 0.00 0.51 0.51 62 1010.8
20260902205351 32 270 14.5 16.1 0.00 0.51 0.51 63 1010.8
20260902204848 33 236 3.2 11.3 0.00 0.51 0.51 63 1011.0
20260902204347 33 243 8.0 8.0 0.00 0.51 0.51 62 1011.0
20260902203843 33 122 3.2 4.8 0.00 0.51 0.51 62 1011.0
20260902203338 33 245 1.6 3.2 0.00 0.51 0.51 63 1011.0
20260902202832 33 266 8.0 11.3 0.00 0.51 0.51 63 1011.0
20260902202328 33 290 0.0 0.0 0.00 0.51 0.51 62 1010.9
20260902201824 33 218 3.2 3.2 0.00 0.51 0.51 63 1010.8
20260902201319 33 349 1.6 3.2 0.00 0.51 0.51 63 1010.9
20260902200814 33 322 1.6 3.2 0.00 0.51 0.51 63 1011.2
20260902200309 33 301 3.2 8.0 0.00 0.51 0.51 63 1011.4
20260902195805 33 225 1.6 3.2 0.00 0.51 0.51 63 1011.4
20260902195306 32 242 0.0 1.6 0.00 0.51 0.51 65 1011.7
20260902194758 32 256 0.0 1.6 0.00 0.51 0.51 65 1011.5
20260902194253 32 318 6.4 11.3 0.00 0.51 0.51 65 1011.5
20260902193748 33 312 6.4 8.0 0.00 0.51 0.51 64 1011.4
20260902193244 33 321 4.8 8.0 0.00 0.51 0.51 64 1011.8
20260902192743 33 279 1.6 3.2 0.00 0.51 0.51 64 1011.9
20260902192242 32 297 3.2 4.8 0.00 0.51 0.51 65 1011.9
20260902191736 33 224 6.4 11.3 0.00 0.51 0.51 66 1012.0
20260902191236 32 249 3.2 4.8 0.00 0.51 0.51 65 1012.1
20260902190732 32 307 4.8 8.0 0.00 0.51 0.51 66 1012.1
20260902190231 33 212 11.3 14.5 0.00 0.51 0.51 68 1012.2
20260902185727 33 284 0.0 0.0 0.00 0.51 0.51 69 1012.1
20260902185223 33 284 1.6 3.2 0.00 0.51 0.51 68 1012.5
20260902184718 33 270 6.4 8.0 0.00 0.51 0.51 68 1012.4
20260902184214 32 256 1.6 3.2 0.00 0.51 0.51 70 1012.3
20260902183710 32 281 6.4 8.0 0.00 0.51 0.51 70 1012.5
20260902183206 32 314 4.8 8.0 0.00 0.51 0.51 72 1012.4
20260902182702 32 277 0.0 0.0 0.00 0.51 0.51 72 1012.4
20260902182158 32 306 0.0 1.6 0.00 0.51 0.51 73 1012.7
20260902181654 31 264 8.0 9.7 0.00 0.51 0.51 74 1012.2
20260902181153 31 290 1.6 8.0 0.00 0.51 0.51 76 1012.5
20260902180648 31 228 0.0 0.0 0.00 0.51 0.51 74 1012.4
20260902180144 31 246 0.0 0.0 0.00 0.51 0.51 76 1012.5
20260902175643 31 297 0.0 0.0 0.00 0.51 0.51 76 1012.5
20260902175139 31 277 0.0 0.0 0.00 0.51 0.51 77 1012.6
20260902174635 31 320 0.0 0.0 0.00 0.51 0.51 77 1012.5
20260902174131 31 303 0.0 1.6 0.00 0.51 0.51 77 1012.6
20260902173626 31 268 0.0 0.0 0.00 0.51 0.51 77 1012.9
20260902173121 31 263 1.6 4.8 0.00 0.51 0.51 77 1012.6
20260902172615 31 250 0.0 0.0 0.00 0.51 0.51 78 1013.0
20260902172109 30 32 0.0 0.0 0.00 0.51 0.51 80 1012.9
20260902171605 30 291 6.4 8.0 0.00 0.51 0.51 80 1013.0
20260902171101 30 202 3.2 4.8 0.00 0.51 0.51 79 1013.2
20260902170556 30 293 3.2 4.8 0.00 0.51 0.51 81 1013.6
20260902170051 30 321 1.6 3.2 0.00 0.51 0.51 80 1013.6
20260902165551 30 275 0.0 1.6 0.00 0.51 0.51 82 1013.4
20260902165046 30 314 4.8 8.0 0.00 0.51 0.51 81 1013.7
20260902164541 30 278 3.2 3.2 0.00 0.51 0.51 83 1013.9
20260902164039 30 269 0.0 3.2 0.00 0.51 0.51 84 1013.6
20260902163536 30 274 0.0 0.0 0.00 0.51 0.51 84 1013.6
20260902163033 29 253 0.0 0.0 0.00 0.51 0.51 85 1013.8
20260902162527 30 303 3.2 4.8 0.00 0.51 0.51 85 1013.9
20260902162023 29 307 3.2 4.8 0.00 0.51 0.51 85 1013.9
20260902161518 29 204 0.0 0.0 0.00 0.51 0.51 85 1013.8
20260902161014 29 248 0.0 0.0 0.00 0.51 0.51 86 1013.8
20260902160509 30 343 0.0 0.0 0.00 0.51 0.51 86 1013.7
20260902160010 30 45 1.6 3.2 0.00 0.51 0.51 86 1013.8
20260902155503 29 64 0.0 1.6 0.00 0.51 0.51 89 1013.8
20260902155001 28 341 0.0 0.0 0.00 0.51 0.51 88 1013.8
20260902154456 28 267 3.2 3.2 0.00 0.51 0.51 88 1014.0
20260902153952 28 259 0.0 0.0 0.00 0.51 0.51 88 1013.7
20260902153450 28 302 4.8 8.0 0.00 0.51 0.51 88 1013.9
20260902152946 28 311 3.2 3.2 0.00 0.51 0.51 88 1013.8
20260902152442 28 298 4.8 4.8 0.00 0.51 0.51 89 1014.0
20260902151937 28 242 6.4 8.0 0.00 0.51 0.51 89 1013.9
20260902151433 28 7 4.8 4.8 0.00 0.51 0.51 89 1013.9
20260902150926 28 305 4.8 8.0 0.00 0.51 0.51 88 1014.1
20260902150423 28 302 0.0 0.0 0.00 0.51 0.51 87 1013.9
20260902145923 29 280 0.0 0.0 0.00 0.51 0.51 87 1013.8
20260902145418 29 277 1.6 1.6 0.00 0.51 0.51 87 1013.5
20260902144913 29 238 1.6 1.6 0.00 0.51 0.51 87 1013.1
20260902144408 29 266 3.2 3.2 0.00 0.51 0.51 86 1012.9
20260902143903 30 270 0.0 1.6 0.00 0.51 0.51 85 1013.3
20260902143358 29 258 0.0 0.0 0.00 0.51 0.51 87 1013.1
20260902142853 28 302 0.0 0.0 0.00 0.51 0.51 89 1013.2
20260902142349 28 321 4.8 4.8 0.00 0.51 0.51 89 1013.3
20260902141844 28 211 0.0 0.0 0.00 0.51 0.51 89 1013.3
20260902141340 28 247 0.0 0.0 0.00 0.51 0.51 90 1013.1
20260902140839 28 280 1.6 3.2 0.00 0.51 0.51 90 1013.0
20260902140335 28 310 0.0 0.0 0.00 0.51 0.51 92 1013.2
20260902135834 27 179 0.0 0.0 0.00 0.51 0.51 91 1013.1
20260902135330 27 333 0.0 0.0 0.00 0.51 0.51 93 1013.4
20260902134829 26 287 0.0 1.6 0.00 0.51 0.51 95 1013.2
20260902134325 25 274 0.0 0.0 0.00 0.51 0.51 99 1013.5
20260902133820 25 219 0.0 0.0 0.00 0.51 0.51 99 1013.5
20260902133319 25 291 0.0 0.0 0.00 0.51 0.51 99 1013.6
20260902132815 25 237 1.6 3.2 0.00 0.51 0.51 99 1013.5
20260902132310 25 303 0.0 0.0 0.00 0.51 0.51 99 1013.5
20260902131806 25 23 0.0 0.0 0.00 0.51 0.51 99 1013.6
20260902131302 25 299 0.0 0.0 0.00 0.51 0.51 99 1013.8
20260902130801 24 245 0.0 0.0 0.00 0.51 0.51 99 1013.6
20260902130257 24 262 0.0 0.0 0.00 0.51 0.51 99 1013.9
20260902125752 24 272 0.0 0.0 0.00 0.51 0.51 99 1013.8
20260902125248 24 294 1.6 3.2 0.00 0.51 0.51 99 1014.0
20260902124744 24 288 0.0 0.0 0.00 0.51 0.51 99 1013.7
20260902124240 24 294 0.0 0.0 0.00 0.51 0.51 99 1013.8
20260902123735 23 292 0.0 0.0 0.00 0.51 0.51 99 1013.7
20260902123231 23 297 0.0 0.0 0.00 0.51 0.51 99 1013.6
20260902122729 23 304 0.0 0.0 0.00 0.51 0.51 99 1013.6
20260902122226 23 290 0.0 0.0 0.00 0.51 0.51 99 1013.7
20260902121725 23 305 0.0 0.0 0.00 0.51 0.51 99 1013.5
20260902121220 23 291 0.0 0.0 0.00 0.51 0.51 99 1013.6
20260902120716 23 312 0.0 0.0 0.00 0.51 0.51 99 1013.7
20260902120213 22 315 0.0 0.0 0.00 0.51 0.51 99 1013.8
20260902115712 22 324 0.0 0.0 0.00 0.51 0.51 99 1013.6
20260902115209 22 300 0.0 0.0 0.00 0.51 0.51 99 1013.2
20260902114704 22 291 0.0 0.0 0.00 0.51 0.51 99 1013.5
20260902114159 22 298 0.0 0.0 0.00 0.51 0.51 99 1013.6
20260902113655 22 268 0.0 0.0 0.00 0.51 0.51 99 1013.2
20260902113149 22 293 0.0 0.0 0.00 0.51 0.51 99 1013.4
20260902112644 22 289 0.0 0.0 0.00 0.51 0.51 99 1013.4
20260902112141 22 312 0.0 0.0 0.00 0.51 0.51 99 1013.3
20260902111636 22 301 0.0 0.0 0.00 0.51 0.51 99 1013.6
20260902111132 22 295 0.0 0.0 0.00 0.51 0.51 99 1013.6
20260902110628 22 295 0.0 0.0 0.00 0.51 0.51 99 1013.5
20260902110124 22 278 0.0 0.0 0.00 0.51 0.51 99 1013.5
20260902105623 22 276 0.0 0.0 0.00 0.51 0.51 99 1013.6
20260902105118 22 295 0.0 0.0 0.00 0.51 0.51 99 1013.5
20260902104614 22 275 0.0 0.0 0.00 0.51 0.51 99 1013.8
20260902104109 22 237 0.0 0.0 0.18 0.51 0.51 99 1013.8
20260902103608 22 236 1.6 3.2 0.18 0.51 0.51 99 1013.9
20260902103104 22 242 3.2 3.2 0.00 0.48 0.48 99 1013.5
20260902102555 22 313 0.0 0.0 0.00 0.48 0.48 99 1013.4
20260902102051 22 341 0.0 0.0 1.02 0.48 0.48 99 1013.3
20260902101547 22 292 0.0 0.0 2.39 0.48 0.48 99 1013.6
20260902101046 23 306 4.8 8.0 1.80 0.33 0.33 99 1014.5
20260902100545 24 276 4.8 4.8 0.48 0.08 0.08 99 1014.2
20260902100040 24 279 4.8 8.0 0.18 0.03 0.03 99 1014.5
20260902095540 24 290 1.6 3.2 0.00 0.00 0.00 99 1014.0
20260902095039 23 280 0.0 0.0 0.00 0.00 0.00 99 1013.7
20260902094535 23 248 0.0 0.0 0.00 0.00 0.00 99 1013.4
20260902094030 23 269 0.0 0.0 0.00 0.00 0.00 99 1013.7
20260902093525 23 270 0.0 0.0 0.00 0.00 0.00 99 1013.7
20260902093025 23 281 0.0 0.0 0.00 0.00 0.00 99 1013.4
20260902092520 23 264 0.0 0.0 0.00 0.00 0.00 99 1013.6
20260902092015 23 347 0.0 0.0 0.00 0.00 0.00 99 1013.4
20260902091510 23 267 0.0 0.0 0.00 0.00 0.00 99 1013.5
20260902091006 23 284 0.0 0.0 0.00 0.00 0.00 99 1013.7
20260902090501 23 288 0.0 0.0 0.00 0.00 0.00 99 1013.5
20260902090000 23 291 0.0 0.0 0.00 0.00 0.00 99 1013.2
20260902085455 23 300 0.0 0.0 0.00 0.00 0.00 99 1013.2
20260902084950 23 300 0.0 0.0 0.00 0.00 0.00 99 1012.9
20260902084447 23 287 0.0 0.0 0.00 0.00 0.00 99 1013.1
20260902083943 23 287 0.0 0.0 0.00 0.00 0.00 99 1013.1
20260902083442 24 281 0.0 0.0 0.00 0.00 0.00 99 1013.3
20260902082937 24 261 0.0 0.0 0.00 0.00 0.00 99 1013.3
20260902082433 24 308 0.0 0.0 0.00 0.00 0.00 99 1013.2
20260902081929 24 280 0.0 0.0 0.00 0.00 0.00 99 1013.1
20260902081425 24 279 0.0 0.0 0.00 0.00 0.00 99 1013.2
20260902080920 24 303 0.0 0.0 0.00 0.00 0.00 99 1013.3
20260902080416 24 287 0.0 0.0 0.00 0.00 0.00 99 1013.4